Simultaneous Nadir Overpasses (SNOs) Predictions

Prediction of SNOs between LANDSAT-8 and METOP-B Satellite Orbit:

Table of predicted SNOs for the next 14.0 days since TLE Epoch: 3/11/2023
Index Date (LANDSAT-8) Time (LANDSAT-8) Lat,Lon (LANDSAT-8) SZA (LANDSAT-8 ) Date (METOP-B) Time (METOP-B) Lat,Lon (METOP-B) SZA (METOP-B ) Distance(km) Time Diff (sec)
1 03/12/2023 09:22:39 81.12, 78.84 86.22 03/12/2023 09:21:36 81.12, 78.98 86.21 2.52 63
2 03/12/2023 10:12:05 -81.14,-113.24 93.75 03/12/2023 10:12:16 -81.14,-113.30 93.76 1.07 11
3 03/15/2023 04:56:54 81.11, 145.14 85.12 03/15/2023 04:55:57 81.12, 145.16 85.10 0.39 57
4 03/15/2023 05:46:20 -81.13, -46.92 94.86 03/15/2023 05:46:36 -81.14, -46.73 94.83 3.29 16
5 03/18/2023 00:31:07 81.11,-148.46 84.02 03/18/2023 00:30:16 81.11,-148.44 84.01 0.35 51
6 03/18/2023 01:20:33 -81.13, 19.51 95.95 03/18/2023 01:20:55 -81.14, 19.68 95.92 2.98 22
7 03/20/2023 20:05:20 81.12, -81.94 82.94 03/20/2023 20:04:35 81.12, -81.82 82.94 2.15 45
8 03/20/2023 20:54:46 -81.14, 86.05 97.02 03/20/2023 20:55:15 -81.14, 85.93 97.02 1.98 29
9 03/23/2023 15:39:32 81.13, -15.32 81.88 03/23/2023 15:38:54 81.12, -15.35 81.86 0.77 38



Historial Predications of SNOs between LANDSAT-8 and METOP-B
